Погода в Уроми

Нигерия     6°42′46″N   6°19′50″E
темп.,
°C
ветер,
м/с
пор.,
м/с
влажн.,
%
обл.,
%
осадки,
мм/ч
давл.,
гПа
погр.,
м
18 апреля, вс
вс1801:00+24юз31093100 0.0 1010398
04:00+23зюз2597100 0.3 1010182
07:00+24ю3789100 4.8 1012204
10:00+25юз2480100 0.0 1012287
13:00+28юз1267100 0.0 1011635
16:00+29юз2261100 0.0 1008843
19:00+25юз248046 0.0 1009103
22:00+23юз2583100 0.0 1011143
19 апреля, пн
пн1901:00+22юз3988100 0.0 1011282
04:00+22ююз2894100 0.0 1010253
07:00+22юз1596100 0.0 1011158
10:00+29ююз346393 0.0 1012992
13:00+33ююз334736 0.0 10101761
16:00+35юз224036 0.0 10072323
19:00+29ююз276099 0.0 1007163
22:00+26зюз41079100 0.0 1010387
20 апреля, вт
вт2001:00+24юз3988100 0.0 1010495
04:00+24юз289248 0.0 1009447
07:00+24юз279438 0.0 1011303
10:00+30юз346357 0.1 10121161
13:00+34ююз334461 0.1 10092046
16:00+32ю465298 0.0 1007496
19:00+28юз396516 0.1 1006388
22:00+25юз398050 0.1 1010398
21 апреля, ср
ср2101:00+24зюз2792100 0.1 1011319
04:00+24зюз2895100 0.0 1009351
07:00+24зюз2895100 0.0 1010380
10:00+30юз2362100 0.0 10111114
13:00+35ююз2243100 0.0 10092052
16:00+33юз2347100 0.0 1006526
19:00+28юз396689 0.0 1007348
22:00+26юз3977100 0.0 1009357
22 апреля, чт
чт2201:00+24зюз398922 0.0 1009376
04:00+23зюз159734 0.0 1010215
07:00+24зюз2496100 0.6 1011167
10:00+29юз3470100 0.0 1012899
13:00+33юз224998 0.1 10101834
16:00+32ююз345474 0.3 10071145
19:00+28ююз5107065 0.4 1008651
22:00+26юз3981100 0.0 1011582